Date,TemperatureHighF,TemperatureAvgF,TemperatureLowF,DewpointHighF,DewpointAvgF,DewpointLowF,HumidityHigh,HumidityAvg,HumidityLow,PressureMaxIn,PressureMinIn,WindSpeedMaxMPH,WindSpeedAvgMPH,GustSpeedMaxMPH,PrecipitationSumIn
2013-1-1,40,28,25,32,-3,-100,73,50,54,29.96,29.78,15,-214,20,0.14
2013-1-2,30,20,21,18,-12,-100,70,47,56,30.11,29.95,14,-238,15,0.00
2013-1-3,32,20,14,24,-11,-100,79,46,45,30.16,30.02,11,-200,16,0.00
2013-1-4,38,29,30,29,1,-100,75,55,64,30.02,29.88,12,-194,27,0.00
2013-1-5,43,29,29,30,2,-100,79,54,49,30.25,29.92,10,-189,18,0.00
2013-1-6,41,29,31,37,1,-100,92,64,76,30.21,29.95,10,-240,16,0.00
2013-1-7,44,30,32,32,4,-100,87,57,52,30.40,29.99,10,-192,10,0.00
2013-1-8,46,33,32,38,9,-100,94,65,68,30.41,30.32,10,-200,12,0.00
2013-1-9,47,34,34,42,14,-100,97,74,83,30.38,30.08,11,-183,24,0.00
2013-1-10,47,31,33,40,-2,-100,85,48,48,30.52,30.12,10,-245,17,0.00
2013-1-11,45,31,30,44,8,-100,96,69,76,30.52,30.16,5,-199,9,0.11
2013-1-12,46,35,42,46,11,-100,98,75,96,30.16,30.08,6,-230,9,0.14
2013-1-13,46,36,42,46,15,-100,99,78,97,30.16,30.02,3,-200,6,0.02
2013-1-14,53,36,38,52,7,-100,99,64,55,30.24,29.95,5,-248,13,0.03
2013-1-15,41,28,35,34,-2,-100,89,57,72,30.30,30.19,2,-260,6,0.09
2013-1-16,38,27,34,37,0,-100,97,70,74,30.22,29.76,6,-259,15,0.27
2013-1-17,44,30,34,36,-1,-100,94,54,60,30.07,29.87,7,-240,13,0.03
2013-1-18,34,22,24,24,-12,-100,78,40,36,30.49,30.00,9,-198,14,0.00
2013-1-19,46,34,30,39,10,-100,87,61,61,30.42,29.94,12,-174,16,0.00
2013-1-20,53,36,31,40,6,-100,86,52,42,29.96,29.64,13,-189,27,0.00
2013-1-21,31,24,24,29,-3,-100,95,58,47,30.11,29.78,6,-191,13,0.00
2013-1-22,27,17,16,25,-16,-100,93,44,42,30.11,29.76,1,-215,3,0.00
2013-1-23,19,13,11,2,-13,-100,64,45,43,30.19,30.10,9,-129,16,0.00
2013-1-24,22,13,10,4,-19,-100,66,40,38,30.29,30.12,12,-186,22,0.00
2013-1-25,25,17,14,18,-13,-100,89,47,43,30.35,30.03,8,-187,15,0.00
2013-1-26,26,17,16,16,-10,-100,88,52,52,30.28,30.00,9,-185,13,0.00
2013-1-27,33,21,16,12,-15,-100,74,37,35,30.48,30.29,8,-208,14,0.00
2013-1-28,37,26,24,36,-1,-100,95,60,42,30.46,29.99,7,-201,9,0.07
2013-1-29,42,30,32,39,8,-100,96,73,80,30.19,29.99,3,-197,6,0.08
2013-1-30,52,39,39,51,21,-100,98,79,95,30.14,29.49,8,-177,12,0.00
2013-1-31,52,21,46,51,-37,-100,98,36,68,29.48,29.07,21,-555,31,0.00
2013-2-1,32,28,24,16,12,8,57,50,42,30.14,29.78,9,3,14,0.00
2013-2-2,31,22,22,24,-8,-100,91,51,50,30.28,30.06,10,-208,15,0.00
2013-2-3,34,22,24,24,-8,-100,90,54,55,30.05,29.73,4,-239,6,0.00
2013-2-4,32,22,24,19,-11,-100,73,42,46,29.96,29.75,0,-218,0,0.00
2013-2-5,28,20,25,25,-10,-100,90,60,51,30.00,29.90,0,-263,1,0.00
2013-2-6,40,26,27,31,-5,-100,91,53,38,30.31,29.90,6,-228,15,0.02
2013-2-7,34,23,23,23,-11,-100,74,42,37,30.51,30.31,2,-218,5,0.00
2013-2-8,34,23,24,33,-5,-100,97,68,72,30.41,29.42,11,-268,17,0.10
2013-2-9,26,15,18,23,-25,-100,95,48,56,30.22,29.48,0,-358,0,0.00
2013-2-10,34,18,17,24,-25,-100,85,42,45,30.43,30.23,4,-364,10,0.01
2013-2-11,44,27,29,44,-6,-100,98,64,76,30.35,29.75,7,-306,9,0.63
2013-3-23,46,40,36,26,18,-100,58,46,39,29.82,29.67,14,-39,17,0.00
2013-3-24,48,35,32,34,14,-100,82,58,45,29.86,29.68,8,-108,12,0.00
2013-3-25,46,35,34,36,20,-100,93,71,60,29.74,29.42,10,-92,13,0.07
2013-3-26,46,33,34,37,11,-100,90,64,63,29.80,29.49,3,-160,10,0.00
2013-3-27,51,39,30,35,16,-100,79,54,43,29.86,29.77,9,-92,17,0.00
2013-3-28,50,38,38,39,20,-100,89,67,59,30.03,29.86,5,-115,8,0.00
2013-3-29,54,36,40,40,4,-100,85,51,44,30.07,29.98,15,-228,20,0.00
2013-3-30,54,41,41,39,18,-100,80,54,38,30.11,30.02,10,-103,15,0.00
2013-3-31,50,40,34,43,26,-100,96,78,72,30.12,29.64,8,-94,12,0.11
2013-4-1,51,39,37,47,22,-100,98,74,53,29.82,29.56,10,-133,16,0.05
2013-4-2,44,32,33,23,1,-100,66,40,32,29.99,29.82,15,-155,21,0.00
2013-4-3,46,36,34,25,8,-100,59,40,32,30.20,29.99,13,-88,18,0.00
2013-4-4,46,36,33,36,16,-100,85,57,42,30.34,30.09,9,-80,15,0.00
2013-4-5,54,41,40,43,20,-100,93,62,28,30.08,29.64,8,-98,14,0.00
2013-4-6,49,38,35,31,10,-100,77,45,26,30.31,29.88,8,-81,16,0.00
2013-4-7,52,40,35,43,25,-100,93,75,68,30.31,30.02,7,-104,10,0.00
2013-4-8,56,46,42,47,37,-100,96,82,68,30.08,29.96,7,-43,10,0.00
2013-4-9,74,52,43,55,33,-100,98,65,38,30.06,29.85,11,-90,15,0.00
2013-4-10,59,45,43,51,35,-100,96,81,75,30.01,29.84,5,-74,11,0.21
2013-4-11,55,43,43,52,33,-100,98,83,80,30.09,29.80,6,-82,10,0.03
2013-4-12,44,36,39,41,21,-100,96,78,72,30.09,29.70,13,-122,20,0.65
2013-4-13,53,41,39,44,26,-100,95,74,60,29.94,29.68,9,-100,11,0.01
2013-4-14,56,44,40,43,24,-100,92,60,46,30.21,29.93,10,-88,21,0.00
2013-4-15,52,40,38,43,21,-100,95,66,62,30.39,30.20,3,-120,5,0.00
2013-4-16,56,45,40,49,33,-100,97,81,74,30.40,30.14,7,-83,9,0.00
2013-4-17,66,48,43,51,30,-100,97,67,42,30.30,30.09,6,-107,10,0.02
2013-4-18,57,46,40,47,36,-100,94,80,70,30.39,30.13,5,-55,7,0.00
2013-4-19,56,48,48,55,38,-100,99,88,93,30.13,29.70,9,-90,15,0.02
2013-4-20,56,45,45,56,28,-100,99,71,47,30.20,29.65,11,-112,18,0.18
2013-4-21,53,42,36,36,22,-100,78,55,40,30.65,30.21,7,-60,11,0.00
2013-4-22,52,42,36,42,28,-100,91,70,57,30.68,30.52,10,-60,12,0.00
2013-4-23,47,40,40,44,28,-100,93,80,78,30.51,30.00,8,-81,12,0.00
2013-4-24,59,45,44,48,32,-100,97,78,65,30.00,29.89,11,-81,13,0.00
2013-4-25,62,50,46,50,32,-100,98,63,34,30.25,29.89,6,-61,13,0.01
2013-4-26,58,48,40,49,36,-100,95,73,55,30.39,30.25,4,-42,6,0.00
2013-4-27,58,46,41,51,38,-100,97,83,74,30.40,30.31,4,-51,5,0.00
2013-4-28,59,46,39,51,36,-100,98,81,63,30.34,30.24,3,-62,5,0.00
2013-4-29,58,48,46,51,38,-100,97,79,72,30.27,30.22,3,-62,4,0.00
2013-4-30,61,51,43,51,39,-100,90,72,62,30.34,30.23,4,-41,6,0.00
2013-5-1,60,48,39,52,36,-100,94,76,70,30.47,30.33,4,-64,7,0.00
2013-5-2,66,51,42,51,42,-100,97,78,52,30.45,30.33,5,-30,7,0.00
2013-5-3,64,50,45,50,37,-100,94,71,54,30.45,30.34,6,-51,9,0.00
2013-5-4,61,49,42,51,38,-100,93,76,63,30.34,30.23,7,-40,10,0.00
2013-5-5,61,48,40,50,40,-100,93,80,65,30.28,30.22,4,-30,7,0.00
2013-5-6,61,49,44,51,40,-100,96,81,69,30.27,30.16,3,-41,5,0.00
2013-5-7,62,50,45,57,39,-100,100,84,79,30.17,30.11,3,-83,5,0.00
2013-5-8,61,53,53,58,47,-100,98,91,89,30.14,30.02,10,-50,10,0.00
2013-5-9,61,51,52,61,44,-100,100,91,96,30.02,29.85,4,-72,7,0.56
2013-5-10,66,55,51,62,49,-100,99,88,76,29.96,29.90,6,-40,9,0.01
2013-5-11,58,50,53,57,40,-100,100,88,93,29.93,29.75,7,-92,9,0.07
2013-5-17,53,52,51,51,49,48,90,89,89,30.20,30.17,3,1,7,0.00
2013-5-18,64,53,48,56,44,-100,97,81,67,30.30,30.20,5,-51,7,0.00
2013-5-19,62,50,51,55,38,-100,98,82,78,30.35,30.20,3,-93,5,0.18
2013-5-20,72,57,54,66,49,-100,99,89,79,30.19,29.94,7,-61,13,0.07
2013-5-21,70,61,55,67,59,54,99,93,82,29.96,29.83,4,1,6,0.00
2013-5-22,66,55,53,61,48,-100,97,89,82,29.94,29.86,2,-52,5,0.00
2013-5-23,65,55,57,62,44,-100,98,86,88,29.92,29.81,6,-95,9,0.14
2013-5-24,63,52,49,63,40,-100,99,85,83,29.80,29.66,5,-105,9,0.33
2013-5-25,55,45,45,51,34,-100,97,83,83,29.80,29.72,9,-81,12,0.05
2013-5-26,62,50,45,49,35,-100,86,69,58,30.13,29.78,13,-70,20,0.00
2013-5-27,69,58,49,53,48,43,91,72,46,30.18,30.09,5,2,10,0.00
2013-5-28,63,56,48,57,52,46,97,89,74,30.22,30.15,3,1,5,0.04
2013-5-29,69,56,54,64,48,-100,98,88,82,30.15,30.00,3,-62,3,0.03
2013-5-30,77,67,57,69,63,56,97,85,72,30.09,30.02,3,1,5,0.00
2013-5-31,81,70,61,70,64,57,96,82,65,30.09,29.97,3,1,6,0.00
2013-6-1,75,66,59,68,62,57,96,87,73,30.00,29.91,3,1,6,0.00
2013-6-2,74,66,61,65,62,60,96,88,74,29.93,29.80,5,1,8,0.00
2013-6-3,65,60,59,65,56,-100,99,94,92,29.83,29.78,3,-33,6,0.35
2013-6-4,75,60,55,61,43,-100,99,62,47,30.05,29.81,4,-51,6,0.00
2013-6-5,69,61,53,58,54,49,93,78,58,30.18,30.05,5,0,5,0.00
2013-6-6,66,60,54,62,58,53,96,92,83,30.17,30.05,3,1,3,0.00
2013-6-7,61,52,57,61,42,-100,100,88,94,30.03,29.67,7,-92,7,3.51
2013-6-8,74,58,56,66,44,-100,100,82,75,30.00,29.49,3,-95,9,0.36
2013-6-9,76,66,58,66,61,58,98,85,62,30.16,30.00,0,0,0,0.00
2013-6-10,66,62,59,64,60,58,99,94,87,30.16,29.90,0,0,0,0.15
2013-6-11,75,61,59,72,54,-100,100,90,81,29.89,29.56,0,-64,0,0.00
2013-6-12,75,66,58,62,58,55,95,77,54,29.81,29.59,0,0,0,0.00
2013-6-13,62,58,54,59,56,53,97,94,89,29.81,29.50,5,0,6,0.00
2013-6-14,70,54,53,59,38,-100,98,74,65,29.78,29.49,5,-114,7,0.00
2013-6-15,77,66,58,63,56,-100,94,74,47,29.94,29.79,3,-10,11,0.00
2013-6-16,75,66,58,65,62,57,97,87,67,29.95,29.74,3,0,7,0.00
2013-6-17,82,61,61,71,46,-100,97,76,67,29.90,29.80,3,-114,9,0.00
2013-6-18,74,58,59,68,44,-100,98,82,81,29.89,29.82,3,-114,4,0.00
2013-6-19,80,54,58,67,27,-100,98,63,58,30.12,29.82,2,-212,4,0.00
2013-6-20,82,60,54,65,41,-100,96,68,47,30.26,30.12,2,-116,5,0.00
2013-6-21,78,60,60,66,42,-100,94,70,59,30.27,30.22,7,-118,8,0.00
2013-6-22,83,62,61,68,44,-100,96,72,55,30.25,30.14,2,-114,5,0.00
2013-6-23,80,62,61,70,47,-100,98,78,69,30.18,30.05,4,-114,7,0.01
2013-6-24,86,66,66,76,50,-100,99,76,66,30.05,29.90,10,-116,10,0.00
2013-6-25,84,73,66,72,68,64,96,85,66,29.94,29.74,5,2,10,0.00
2013-6-26,81,66,66,73,50,-100,95,74,74,29.81,29.73,11,-112,12,0.00
2013-6-27,70,58,64,69,46,-100,99,86,94,29.80,29.66,8,-120,9,0.01
2013-6-28,72,46,65,70,15,-100,100,68,94,29.66,29.50,7,-310,10,0.05
2013-6-29,73,37,65,69,-14,-100,100,49,88,29.72,29.48,4,-462,7,0.00
2013-6-30,72,45,66,69,10,-100,99,63,88,29.93,29.72,4,-343,6,0.42
2013-7-1,72,48,66,71,17,-100,100,68,93,30.07,29.93,6,-304,7,0.04
2013-7-2,74,56,67,72,35,-100,99,77,89,30.18,30.08,3,-199,7,0.00
2013-7-3,79,72,67,74,70,67,99,94,84,30.23,30.16,4,1,5,0.00
2013-7-4,81,59,69,76,36,-100,99,72,79,30.22,30.13,4,-207,10,0.00
2013-7-5,85,68,70,76,55,-100,97,79,71,30.17,30.07,4,-99,9,0.00
2013-7-6,88,66,71,77,45,-100,96,71,65,30.09,29.97,6,-167,13,0.00
2013-7-7,87,71,70,78,59,-100,97,79,71,30.02,29.89,10,-82,11,0.00
2013-7-8,84,65,70,73,46,-100,98,73,68,30.01,29.91,5,-148,14,0.00
2013-7-9,73,58,67,71,38,-100,100,79,93,30.06,29.98,5,-169,7,0.00
2013-7-10,80,64,69,75,50,-100,100,84,83,30.02,29.79,6,-113,8,0.00
2013-7-11,74,62,70,73,47,-100,99,83,90,29.88,29.78,3,-137,7,0.01
2013-7-12,78,51,68,71,19,-100,99,63,79,30.12,29.87,8,-265,10,0.00
2013-7-13,71,50,66,70,19,-100,100,69,94,30.28,30.12,8,-279,9,0.25
2013-7-14,84,63,69,77,44,-100,100,76,73,30.29,30.19,4,-165,9,0.01
2013-7-15,89,80,72,78,74,71,97,83,64,30.19,30.08,6,2,10,0.00
2013-7-16,90,74,72,78,58,-100,97,72,63,30.12,30.07,3,-84,6,0.00
2013-7-17,82,68,71,76,53,-100,98,78,76,30.16,30.02,3,-114,4,0.00
2013-7-18,88,70,70,78,54,-100,100,76,71,30.03,29.93,4,-114,6,0.00
2013-7-19,90,73,72,80,62,-100,100,82,69,29.93,29.75,6,-60,10,0.00
2013-7-20,87,68,72,76,52,-100,97,75,67,29.80,29.67,5,-123,11,0.00
2013-7-21,76,64,69,72,49,-100,97,77,75,29.95,29.80,4,-114,5,0.16
2013-7-22,74,61,68,71,40,-100,100,79,88,29.96,29.84,8,-138,8,0.00
2013-7-23,80,57,69,76,34,-100,100,74,84,29.82,29.54,5,-216,7,0.10
2013-7-24,82,66,68,76,49,-100,99,76,71,29.87,29.56,4,-124,11,0.01
2013-7-25,71,59,61,63,46,-100,95,78,73,30.02,29.87,6,-81,10,0.06
2013-7-26,71,55,61,67,36,-100,97,76,85,30.02,29.91,5,-163,10,0.08
2013-7-27,78,67,67,72,58,-100,99,85,80,30.05,29.95,5,-61,7,0.00
2013-7-28,78,63,67,73,50,-100,98,82,82,29.98,29.92,4,-114,5,0.00
2013-7-29,78,69,68,75,62,-100,100,89,83,30.02,29.93,3,-51,4,0.00
2013-7-30,79,65,62,69,49,-100,96,69,58,30.09,30.02,9,-88,12,0.00
2013-7-31,78,65,62,68,51,-100,96,75,67,30.11,30.03,2,-84,5,0.00
2013-8-1,77,63,66,72,50,-100,99,83,82,30.03,29.84,4,-103,5,0.07
2013-8-2,80,65,67,71,49,-100,98,74,60,29.87,29.76,7,-112,15,0.06
2013-8-3,75,67,69,70,56,-100,95,82,77,29.87,29.79,8,-62,15,0.02
2013-8-4,80,62,61,67,44,-100,97,68,52,29.88,29.78,6,-114,10,0.04
2013-8-5,77,58,60,60,33,-100,91,56,38,30.02,29.88,5,-143,9,0.00
2013-8-6,74,59,56,67,43,-100,97,74,62,30.13,30.01,7,-113,7,0.00
2013-8-7,75,62,61,68,49,-100,98,79,69,30.16,30.10,5,-92,5,0.01
2013-8-8,76,63,67,71,48,-100,98,81,85,30.09,30.02,6,-121,7,0.11
2013-8-9,74,64,70,73,53,-100,99,88,96,30.04,29.78,7,-102,10,0.37
2013-8-10,80,64,66,72,45,-100,100,70,64,30.00,29.79,7,-133,11,0.00
2013-8-11,76,65,59,66,50,-100,92,70,51,30.07,29.99,5,-59,12,0.00
2013-8-12,74,62,66,71,48,-100,98,82,83,30.02,29.91,2,-116,3,0.01
2013-8-13,67,17,65,66,-58,-100,99,25,98,29.91,29.67,1,-747,2,0.00
2013-8-14,74,53,64,68,21,-100,99,56,55,29.96,29.67,8,-228,16,0.00
2013-8-15,75,60,58,62,40,-100,89,65,57,30.11,29.97,5,-116,7,0.00
2013-8-16,77,65,62,67,54,-100,96,77,62,30.18,30.09,4,-62,6,0.00
2013-8-17,78,63,59,67,50,-100,98,75,60,30.25,30.18,3,-83,5,0.00
2013-8-18,72,59,61,67,45,-100,97,79,79,30.25,30.08,5,-115,7,0.01
2013-8-19,76,62,61,68,46,-100,95,74,71,30.08,29.97,7,-114,11,0.00
2013-8-20,80,65,66,69,48,-100,96,72,59,30.09,29.98,5,-113,8,0.00
2013-8-21,81,68,63,71,58,-100,98,80,68,30.13,30.03,4,-62,6,0.00
2013-8-22,74,65,67,72,58,-100,98,90,91,30.04,29.83,5,-67,12,0.18
2013-8-23,82,52,63,69,21,-100,99,62,51,30.08,29.81,2,-270,6,0.01
2013-8-24,77,59,60,62,40,-100,96,66,47,30.32,30.08,5,-116,7,0.00
2013-8-25,77,63,58,67,48,-100,98,75,52,30.34,30.20,4,-72,6,0.00
2013-8-26,76,62,68,69,47,-100,98,75,73,30.20,29.89,7,-113,12,0.47
2013-8-27,79,58,68,72,40,-100,99,79,79,29.88,29.78,7,-171,7,0.41
2013-8-28,71,58,67,71,41,-100,99,82,95,29.90,29.83,4,-162,6,0.01
2013-8-29,76,51,62,69,24,-100,100,68,80,30.02,29.89,5,-251,8,0.00
2013-8-30,75,42,59,71,2,-100,97,57,85,30.00,29.84,3,-374,6,0.00
2013-8-31,77,47,70,73,11,-100,98,62,87,29.84,29.80,5,-346,7,0.00
2013-9-1,72,7,71,71,-84,-100,96,9,96,29.86,29.80,5,-904,7,0.00
2013-9-2,74,30,70,73,-30,-100,100,40,99,29.83,29.70,3,-582,4,0.00
2013-9-3,71,31,63,71,-25,-100,100,45,99,29.82,29.67,4,-541,4,0.00
2013-9-4,75,61,61,66,44,-100,100,73,63,29.92,29.82,10,-112,13,0.00
2013-9-5,76,61,57,66,44,-100,94,70,57,30.09,29.87,6,-105,8,0.00
2013-9-6,70,55,54,54,34,-100,91,60,48,30.21,30.10,4,-103,7,0.00
2013-9-7,73,55,56,63,31,-100,93,63,50,30.09,29.87,7,-165,13,0.00
2013-9-8,77,55,57,66,27,-100,92,57,45,30.05,29.75,7,-196,13,0.00
2013-9-9,68,52,52,57,28,-100,77,58,57,30.22,30.05,4,-155,9,0.00
2013-9-10,72,57,65,69,38,-100,97,74,78,30.16,30.00,6,-166,15,0.00
2013-9-11,78,52,68,73,22,-100,98,66,83,30.09,29.98,5,-283,8,0.00
2013-9-12,75,54,68,72,29,-100,98,72,88,29.98,29.67,7,-237,13,0.33
2013-9-13,75,51,63,71,22,-100,99,65,71,29.74,29.58,6,-259,12,0.01
2013-9-14,67,42,56,58,7,-100,89,56,68,30.05,29.74,6,-307,9,0.00
2013-9-15,66,34,52,58,-12,-100,89,45,58,30.16,30.05,5,-426,7,0.00
2013-9-16,68,42,53,60,3,-100,88,52,69,30.20,30.01,5,-339,10,0.00
2013-9-17,62,44,46,48,14,-100,91,52,49,30.38,30.20,6,-198,13,0.00
2013-9-18,68,52,47,56,29,-100,95,63,49,30.32,30.15,5,-125,8,0.00
2013-9-19,69,34,57,60,-17,-100,94,45,58,30.15,30.04,5,-462,7,0.00
2013-9-20,72,49,55,66,23,-100,100,69,80,30.08,30.00,3,-241,5,0.01
2013-9-21,70,55,60,67,37,-100,98,79,91,30.02,29.71,6,-164,7,0.00
2013-9-22,70,43,54,68,6,-100,97,52,63,29.83,29.61,8,-324,12,0.02
2013-9-23,63,50,49,50,30,-100,84,64,59,29.99,29.82,7,-115,12,0.00
2013-9-24,66,47,47,53,24,-100,87,62,57,30.00,29.81,11,-157,13,0.00
2013-9-25,68,50,48,59,27,-100,94,63,55,29.93,29.84,9,-167,10,0.00
2013-9-26,61,11,58,56,-71,-100,84,16,82,30.09,29.94,7,-811,9,0.00
2013-9-27,-200,0,200,-100,-100,-100,0,0,100,30.24,30.08,0,-999,0,0.00
2013-9-28,-200,0,200,-100,-100,-100,0,0,100,30.29,30.23,0,-999,0,0.00
2013-9-29,64,36,57,57,-8,-100,91,49,73,30.23,30.07,7,-404,9,0.01
2013-9-30,65,29,55,59,-24,-100,97,43,72,30.07,29.95,4,-515,5,0.00
2013-10-1,60,10,53,59,-72,-100,96,17,94,29.95,29.84,4,-820,4,0.00
2013-10-2,74,24,62,65,-45,-100,94,29,71,29.96,29.84,5,-652,14,0.00
2013-10-3,73,41,58,61,0,-100,97,51,54,30.07,29.96,3,-372,6,0.00
2013-10-4,73,43,59,67,8,-100,96,61,82,30.05,29.97,6,-332,8,0.00
2013-10-5,61,11,59,59,-72,-100,95,17,93,30.09,30.01,2,-820,4,0.12
2013-10-6,64,39,60,63,2,-100,98,61,92,30.14,30.06,11,-361,13,0.13
2013-10-7,71,52,64,70,26,-100,99,72,90,30.06,29.84,9,-239,12,0.00
2013-10-8,67,31,55,60,-23,-100,87,35,49,30.31,29.90,5,-483,8,0.00
2013-10-9,63,33,52,53,-15,-100,87,42,63,30.39,30.30,10,-429,12,0.00
2013-10-10,65,34,51,59,-11,-100,91,50,79,30.30,30.08,7,-419,10,0.00
2013-10-11,67,49,57,61,22,-100,93,63,56,30.09,30.02,8,-218,13,0.00
2013-10-12,68,46,54,60,17,-100,89,61,66,30.31,30.08,16,-240,16,0.00
2013-10-13,60,43,51,53,16,-100,91,62,74,30.38,30.29,10,-232,13,0.00
2013-10-14,59,34,49,51,-5,-100,95,53,74,30.37,30.24,4,-365,6,0.00
2013-10-15,63,45,49,56,19,-100,97,65,69,30.25,30.13,8,-218,9,0.00
2013-10-16,66,42,54,60,8,-100,94,60,77,30.12,29.90,7,-315,9,0.00
2013-10-17,61,9,59,59,-77,-100,95,14,93,29.90,29.72,1,-853,3,0.00
2013-10-18,67,42,56,56,2,-100,81,46,62,29.92,29.63,9,-331,16,0.00
2013-10-19,62,9,50,50,-75,-100,83,13,63,29.97,29.74,2,-831,4,0.00
2013-10-20,62,27,53,43,-35,-100,66,24,44,30.02,29.68,8,-541,12,0.00
2013-10-21,63,40,47,51,2,-100,82,47,48,30.11,29.99,8,-303,11,0.00
2013-10-22,66,33,51,56,-17,-100,81,42,68,29.98,29.70,6,-451,9,0.00
2013-10-23,51,36,45,44,5,-100,82,55,60,29.78,29.58,6,-249,11,0.01
2013-10-24,53,39,44,40,5,-100,78,45,44,29.91,29.66,13,-218,17,0.00
2013-10-25,51,39,42,36,9,-100,73,48,48,30.18,29.92,9,-178,14,0.00
2013-10-26,55,43,41,45,16,-100,83,54,50,30.17,29.88,17,-161,23,0.00
2013-10-27,57,42,42,41,10,-100,76,47,46,30.07,29.81,8,-197,17,0.00
2013-10-28,58,40,40,44,10,-100,82,51,52,30.31,30.07,9,-208,18,0.00
2013-10-29,47,6,41,35,-80,-100,67,10,62,30.40,30.31,7,-850,10,0.00
2013-10-30,58,22,50,52,-39,-100,94,33,71,30.34,30.18,4,-595,8,0.00
2013-10-31,63,20,47,61,-48,-100,95,32,92,30.22,29.82,10,-651,13,0.02
2013-11-1,63,31,60,62,-21,-100,95,45,85,29.81,29.54,12,-497,16,0.02
2013-11-2,61,8,57,58,-80,-100,94,12,91,29.71,29.59,4,-871,9,0.00
2013-11-3,49,29,36,41,-14,-100,78,41,47,30.38,29.70,6,-348,11,0.00
2013-11-4,45,29,34,31,-11,-100,74,39,38,30.67,30.39,8,-290,10,0.00
2013-11-5,50,33,38,42,-2,-100,78,52,66,30.67,30.50,6,-293,9,0.00
2013-11-6,50,5,48,43,-85,-100,77,8,76,30.50,30.07,1,-894,4,0.00
2013-11-7,61,33,44,60,-8,-100,97,55,77,30.06,29.68,10,-372,16,0.33
2013-11-8,51,32,40,37,-6,-100,78,44,51,30.12,29.85,11,-280,17,0.00
2013-11-9,50,36,40,41,5,-100,72,49,49,30.23,30.02,9,-207,15,0.00
2013-11-10,58,40,47,46,12,-100,80,54,57,30.02,29.72,18,-203,24,0.01
2013-11-11,53,38,44,44,4,-100,74,48,54,30.13,29.91,13,-225,21,0.00
2013-11-12,53,28,30,42,-4,-100,92,53,59,30.18,29.87,12,-236,17,0.01
2013-11-13,38,21,30,26,-29,-100,65,30,41,30.30,30.18,11,-239,19,0.00
2013-11-14,51,36,38,36,4,-100,72,45,45,30.22,30.10,14,-203,23,0.00
2013-11-15,56,38,46,46,4,-100,89,52,53,30.23,30.16,7,-260,11,0.00
2013-11-16,56,39,44,49,12,-100,94,64,60,30.30,30.21,7,-227,11,0.00
2013-11-17,57,18,44,57,-48,-100,98,33,95,30.29,29.84,4,-662,8,0.00
2013-11-18,62,43,51,57,10,-100,98,54,51,29.83,29.58,15,-252,19,0.00
2013-11-19,50,30,34,38,-10,-100,66,40,47,30.29,29.68,14,-278,16,0.00
2013-11-20,44,15,-90,23,-53,-100,65,18,31,30.60,30.29,4,-222,10,0.00
2013-11-21,49,28,38,42,-16,-100,77,42,51,30.62,30.39,4,-283,7,0.00
2013-11-22,53,22,49,51,-37,-100,95,38,77,30.38,29.83,6,-571,12,0.00
2013-11-23,53,31,32,51,-7,-100,92,41,38,29.93,29.82,15,-270,17,0.00
2013-11-24,32,7,24,21,-72,-100,64,14,48,30.26,29.85,19,-258,21,0.00
2013-11-25,38,22,23,29,-16,-100,72,41,44,30.43,30.25,9,-206,15,0.00
2013-11-26,51,34,37,50,7,-100,97,58,51,30.33,29.95,9,-197,18,0.28
2013-11-27,58,26,41,58,-24,-100,98,49,95,29.94,29.23,11,-497,17,0.93
2013-11-28,35,22,28,22,-21,-100,68,37,44,30.47,29.57,15,-320,17,0.00
2013-11-29,37,23,27,21,-14,-100,62,41,51,30.71,30.46,6,-272,8,0.00
2013-11-30,42,25,23,34,-9,-100,75,50,54,30.75,30.39,9,-269,11,0.00
2013-12-1,51,23,41,50,-27,-100,97,47,71,30.38,29.99,8,-483,12,0.00
2013-12-2,44,24,38,42,-17,-100,100,57,91,29.99,29.88,2,-399,4,0.00
2013-12-3,51,32,36,40,3,-100,97,60,60,29.96,29.83,5,-249,8,0.00
2013-12-4,47,29,36,41,-9,-100,93,53,67,30.17,29.96,4,-332,9,0.00
2013-12-5,53,29,41,53,-15,-100,98,55,92,30.17,29.94,3,-430,7,0.00
2013-12-6,52,5,52,52,-86,-100,98,9,98,30.09,29.88,2,-905,4,0.00
2013-12-7,41,20,32,34,-28,-100,78,39,65,30.48,30.05,9,-435,13,0.00
2013-12-8,33,22,30,25,-15,-100,79,46,60,30.60,30.43,9,-296,13,0.00
2013-12-9,30,2,28,27,-91,-100,90,6,83,30.44,29.89,9,-925,13,0.00
2013-12-10,-200,0,200,-100,-100,-100,0,0,100,30.05,29.79,0,-999,0,0.00
2013-12-11,34,21,30,25,-23,-100,72,42,62,30.28,30.06,15,-368,25,0.00
2013-12-12,31,17,22,20,-24,-100,70,38,46,30.30,30.11,13,-310,21,0.00
2013-12-13,33,20,24,20,-20,-100,72,41,54,30.35,30.06,11,-319,22,0.00
2013-12-14,37,16,17,36,-20,-100,97,57,60,30.56,30.00,19,-332,21,0.01
2013-12-15,40,20,32,39,-24,-100,97,50,69,29.96,29.38,19,-417,23,0.16
2013-12-16,36,23,24,28,-12,-100,75,44,47,30.22,29.77,11,-226,18,0.00
2013-12-17,27,13,20,26,-34,-100,95,49,58,30.25,29.89,10,-450,12,0.00
2013-12-18,35,24,23,27,-10,-100,91,52,64,30.13,29.84,11,-270,21,0.00
2013-12-19,45,32,32,37,5,-100,84,59,61,30.15,29.99,12,-209,20,0.07
2013-12-20,50,36,39,45,12,-100,93,68,72,30.12,29.97,7,-208,10,0.00
2013-12-21,53,38,46,50,15,-100,97,72,88,30.01,29.91,9,-216,12,0.00
2013-12-22,59,32,49,55,-10,-100,99,56,85,29.98,29.84,17,-403,17,0.00
2013-12-23,53,5,51,51,-86,-100,95,9,92,30.07,29.89,3,-904,7,0.00
2013-12-24,38,15,29,25,-46,-100,77,28,53,30.24,30.03,7,-561,12,0.00
2013-12-25,31,19,19,25,-18,-100,77,42,46,30.53,30.25,8,-269,16,0.00
2013-12-26,44,24,32,37,-14,-100,91,53,75,30.44,30.10,14,-334,19,0.02
2013-12-27,38,27,31,28,-4,-100,81,52,58,30.31,30.23,11,-236,15,0.00
2013-12-28,48,29,34,39,-8,-100,89,51,62,30.26,30.04,9,-320,19,0.00
2013-12-29,43,4,41,38,-86,-100,83,8,76,30.05,29.30,5,-894,7,0.00
2013-12-30,44,19,20,41,-28,-100,90,39,54,30.14,29.55,12,-415,16,0.00
2013-12-31,31,18,19,23,-23,-100,78,45,56,30.20,30.04,11,-341,20,0.00
2014-1-1,30,28,24,19,16,13,70,60,49,30.38,30.20,10,3,16,0.00
2014-1-2,30,25,14,27,22,13,93,88,72,30.29,29.66,12,6,17,0.00